[[{"header":{"parameterUnit":"m.s-1","parameterCategory":2,"la1":30.2991,"la2":30.254,"lo1":-89.0895,"lo2":-89.0444,"dy":0.0017,"dx":0.0017,"nx":28,"ny":28,"refTime":"2024-06-20T21:00:00:Z","depth":"0","parameterNumber":2,"parameterNumberName":"U-component_of_CURRENTS"},"data":[0,0,0,0,0,0,0,0,0,0,0,0,0,0,0,0,0,0,0,0,0,0,0,0,0,0,0,0,0,0,0,0,0,0,0,0,0,0,0,0,0,0,0,0,0,0,0,0,0,0,0,0,0,0,0,0,0,0,0.4534,0.4535,0,0.453,0.453,0.4529,0.4489,0.4488,0.4487,0.4487,0.4432,0.4431,0.443,0,0,0,0,0,0,0,0,0,0,0,0,0,0.4543,0.4543,0.4534,0.4535,0.4535,0.453,0.4529,0.4529,0.4489,0.4488,0.4487,0.4487,0.4432,0.4431,0.443,0,0,0,0,0,0,0,0,0,0,0,0,0,0.4535,0.4542,0.4534,0.4517,0.4516,0.453,0.4529,0.4529,0.4489,0.4488,0.4487,0.4486,0.4433,0.4431,0.443,0.4441,0,0,0.4426,0.4426,0,0,0,0,0,0,0,0,0.4536,0.4534,0.4519,0.4519,0.4517,0.4512,0.4513,0.4498,0.4489,0.4495,0.4487,0.4486,0.4458,0.4454,0.445,0.4438,0.4436,0.4426,0.4425,0.4425,0.4424,0,0,0,0,0,0,0,0.4536,0.4534,0.4528,0.452,0.4519,0.4522,0.4519,0.451,0.4477,0.4494,0.4492,0.4499,0.4456,0.4452,0.4449,0.4435,0.4426,0.4425,0.4424,0.4424,0.4467,0.4468,0,0,0,0,0,0,0.4544,0.4535,0.4529,0.4529,0.4529,0.4523,0.452,0.4512,0.4479,0.4474,0.45,0.4497,0.4454,0.445,0.4447,0.4482,0.4425,0.4423,0.4423,0.4465,0.4467,0.4469,0,0,0,0,0,0,0.4544,0.4543,0.4529,0.4536,0.4535,0.4524,0.4515,0.4512,0.4514,0.4484,0.4477,0.4506,0.4454,0.4448,0.4452,0.4479,0.4423,0.4422,0.4462,0.4465,0.4468,0.4538,0,0,0,0,0,0,0.4544,0.4542,0.4541,0.4536,0.4535,0.4543,0.4517,0.4513,0.4521,0.4517,0.4487,0.4481,0.4452,0.4454,0.4451,0.4476,0.4421,0.446,0.4464,0.4467,0.4533,0.4543,0.4551,0,0,0,0,0,0.4544,0.4543,0.4541,0.4541,0.4532,0.4544,0.4544,0.453,0.4522,0.4527,0.4514,0.4482,0.4475,0.4455,0.445,0.4476,0.4458,0.4463,0.4467,0.4529,0.4541,0.4551,0,0,0,0,0,0,0.4544,0.4539,0.4536,0.4533,0.4544,0.4539,0.4543,0.4542,0.4536,0.4532,0.4501,0.4494,0.4512,0.4489,0.4468,0.4502,0.4464,0.4468,0.4513,0.4524,0.4533,0.4541,0.442,0,0,0,0,0,0.4547,0.4541,0.4548,0.4546,0.4554,0.4554,0.4558,0.4556,0.4552,0.4548,0.453,0.452,0.4528,0.4521,0.4518,0.453,0.4539,0.4547,0.4556,0.4564,0.457,0.4621,0.4635,0.4483,0.4483,0.4483,0,0,0.4545,0.4544,0.4539,0.4546,0.455,0.4564,0.4552,0.4566,0.458,0.4544,0.4551,0.4552,0.4541,0.4559,0.4565,0.4539,0.4615,0.4569,0.4575,0.4578,0.4627,0.4642,0.4655,0.4486,0.4486,0.4485,0,0,0.4541,0.4542,0.4537,0.4552,0.4569,0.4578,0.4588,0.4595,0.4599,0.4617,0.4604,0.4624,0.4615,0.462,0.4621,0.468,0.4667,0.4681,0.4723,0.4773,0.4785,0.4797,0.484,0.4854,0.4678,0.4678,0.4678,0,0.454,0.4536,0.4541,0.4551,0.457,0.4587,0.4604,0.4617,0.4625,0.4642,0.4626,0.4661,0.4648,0.4689,0.4709,0.47,0.4725,0.4679,0.4784,0.4796,0.4806,0.4847,0.4862,0.4682,0.4682,0.4681,0.4681,0,0.453,0.4542,0.4547,0.4563,0.4585,0.4606,0.4635,0.466,0.4675,0.4689,0.4737,0.4736,0.4757,0.4764,0.4751,0.4823,0.4818,0.4796,0.4755,0.4825,0.4864,0.4879,0.4688,0.4686,0.4685,0.4684,0,0,0.4481,0.453,0.453,0.4536,0.4598,0.4597,0.466,0.4706,0.4742,0.4764,0.4815,0.4839,0.4851,0.4856,0.4855,0.4892,0.4988,0.4878,0.4879,0.4917,0.5107,0.5095,0.5109,0.499,0.4992,0.4994,0.5109,0,0.4471,0.4477,0.4528,0.4546,0.4548,0.462,0.4666,0.4715,0.4774,0.4828,0.4863,0.4904,0.4883,0.4906,0.4947,0.4986,0.5029,0.496,0.5035,0.5038,0.5016,0.5126,0.4952,0.5039,0.5123,0.5125,0.5127,0,0.4432,0.4442,0.446,0.4516,0.4528,0.456,0.4646,0.4697,0.4808,0.4856,0.4933,0.4972,0.5049,0.5013,0.5121,0.5083,0.5104,0.5123,0.5127,0.51,0.5053,0.4981,0.5062,0.4927,0.5149,0.5147,0.5145,0,0.4333,0.4388,0.4395,0.4413,0.449,0.4528,0.4582,0.4696,0.4759,0.4888,0.4946,0.5049,0.5104,0.5162,0.5221,0.5183,0.5338,0.5282,0.529,0.5288,0.5146,0.5128,0.5099,0.5355,0.5355,0.5355,0.5355,0,0.4281,0.4276,0.4343,0.4337,0.4369,0.4444,0.4518,0.4604,0.4743,0.4824,0.4942,0.5043,0.5147,0.5251,0.5275,0.5352,0.5387,0.533,0.5331,0.5167,0.5151,0.5029,0.4957,0.5359,0.5358,0.5357,0.5357,0,0.4166,0.4214,0.4217,0.429,0.4322,0.4335,0.4481,0.4528,0.4672,0.4797,0.4842,0.5064,0.5223,0.5315,0.5441,0.5423,0.534,0.5492,0.5298,0.5276,0.5136,0.5074,0.4874,0.4732,0.5522,0.5522,0.5523,0,0.4106,0.4091,0.4161,0.417,0.4211,0.4264,0.4311,0.4475,0.4547,0.481,0.4854,0.5087,0.5225,0.5429,0.5481,0.5548,0.5362,0.54,0.5289,0.5139,0.5071,0.4844,0.4721,0.5129,0.5126,0.5124,0.5122,0,0.3993,0.4025,0.4035,0.406,0.4098,0.4143,0.4228,0.4283,0.4481,0.4609,0.4808,0.4959,0.5214,0.5271,0.54,0.5414,0.514,0.5357,0.5241,0.4811,0.4519,0.4378,0.5046,0.5102,0.5104,0.5105,0.5106,0.5107,0.3913,0.3898,0.392,0.3928,0.3965,0.3983,0.397,0.4093,0.421,0.4357,0.4648,0.4788,0.5021,0.5213,0.5181,0.5067,0.5025,0.4926,0.4882,0.4681,0.4471,0.5112,0.5146,0.5148,0.515,0.5151,0.5153,0,0.378,0.3776,0.378,0.3772,0.3731,0.3817,0.3866,0.3832,0.3892,0.4139,0.4304,0.4554,0.4647,0.4765,0.4802,0.4618,0.4357,0.4488,0.4108,0.4027,0.4647,0.4559,0.4418,0.4418,0.4418,0.4418,0.4418,0.4418,0.371,0.3651,0.3644,0.3529,0.3515,0.3418,0.3403,0.3419,0.3533,0.3675,0.3819,0.4042,0.4372,0.4513,0.4377,0.4258,0.3883,0.3712,0.3687,0.4127,0.4161,0.4195,0.4095,0.3859,0.3858,0.2889,0.2881,0.2876]},{"header":{"parameterUnit":"m.s-1","parameterCategory":2,"la1":30.2991,"la2":30.254,"lo1":-89.0895,"lo2":-89.0444,"dy":0.0017,"dx":0.0017,"nx":28,"ny":28,"refTime":"2024-06-20T21:00:00:Z","depth":"0","parameterNumber":3,"parameterNumberName":"V-component_of_CURRENTS"},"data":[0,0,0,0,0,0,0,0,0,0,0,0,0,0,0,0,0,0,0,0,0,0,0,0,0,0,0,0,0,0,0,0,0,0,0,0,0,0,0,0,0,0,0,0,0,0,0,0,0,0,0,0,0,0,0,0,0,0,0.0353,0.0352,0,0.0279,0.0278,0.0277,0.0229,0.0229,0.0229,0.0229,0.0132,0.013,0.0128,0,0,0,0,0,0,0,0,0,0,0,0,0,0.0379,0.0379,0.0353,0.0352,0.0351,0.028,0.0278,0.0277,0.0229,0.0229,0.0229,0.0229,0.0133,0.013,0.0127,0,0,0,0,0,0,0,0,0,0,0,0,0,0.0341,0.0379,0.0353,0.032,0.0317,0.028,0.0278,0.0277,0.023,0.0229,0.0229,0.0229,0.0134,0.013,0.0127,0.0109,0,0,0.0116,0.0114,0,0,0,0,0,0,0,0,0.0344,0.034,0.0326,0.0322,0.0318,0.0265,0.0252,0.022,0.023,0.0261,0.0229,0.0229,0.0176,0.0169,0.0153,0.0105,0.0101,0.0115,0.0113,0.0112,0.0111,0,0,0,0,0,0,0,0.0346,0.0343,0.0322,0.0325,0.032,0.0284,0.0279,0.0245,0.0219,0.0258,0.0255,0.0249,0.0173,0.0157,0.0151,0.0099,0.0116,0.0112,0.011,0.0109,0.0039,0.0039,0,0,0,0,0,0,0.0363,0.0346,0.0325,0.032,0.0332,0.0284,0.0278,0.0281,0.022,0.0211,0.025,0.0247,0.0163,0.0155,0.0147,0.015,0.0112,0.0108,0.0106,0.0038,0.0039,0.0039,0,0,0,0,0,0,0.0364,0.0362,0.0328,0.0332,0.0325,0.0285,0.0287,0.028,0.027,0.0214,0.0204,0.0249,0.0163,0.0152,0.013,0.0145,0.0107,0.0103,0.0038,0.0038,0.0039,0.0138,0,0,0,0,0,0,0.0365,0.0363,0.0369,0.0333,0.0326,0.032,0.0288,0.0278,0.0267,0.0263,0.021,0.02,0.0162,0.0135,0.0126,0.0139,0.0101,0.0038,0.0038,0.0039,0.0135,0.0142,0.0149,0,0,0,0,0,0.0366,0.0383,0.037,0.0367,0.0336,0.0321,0.0314,0.0282,0.0268,0.0271,0.0235,0.0202,0.0132,0.0133,0.0122,0.0134,0.0037,0.0038,0.0039,0.0132,0.0141,0.0148,0,0,0,0,0,0,0.0397,0.0379,0.0364,0.0374,0.0354,0.0314,0.0313,0.0292,0.0265,0.0261,0.0208,0.0196,0.0179,0.0142,0.0144,0.0114,0.0078,0.0077,0.0153,0.0161,0.0168,0.0196,0.0097,0,0,0,0,0,0.0408,0.0415,0.0388,0.0395,0.039,0.0353,0.0342,0.0323,0.0294,0.0282,0.0244,0.0203,0.0172,0.0157,0.012,0.0107,0.0066,0.0106,0.0113,0.0119,0.0133,0.0084,0.0088,0.0041,0.0041,0.0041,0,0,0.0419,0.0411,0.0413,0.0402,0.0382,0.0393,0.0346,0.034,0.0349,0.0276,0.0275,0.0226,0.0173,0.0158,0.0148,0.0132,0.0109,0.012,0.0126,0.0137,0.0085,0.009,0.0094,0.0042,0.0042,0.0042,0,0,0.0455,0.0442,0.0463,0.0457,0.044,0.0422,0.0428,0.0396,0.0382,0.037,0.0322,0.0286,0.0237,0.0205,0.0182,0.0204,0.0146,0.0189,0.0252,0.0204,0.0208,0.0211,0.0164,0.0162,0.0196,0.0196,0.0196,0,0.047,0.0497,0.0466,0.0487,0.0493,0.0446,0.0475,0.0456,0.0421,0.0417,0.0384,0.0313,0.026,0.0251,0.0254,0.0221,0.0186,0.0228,0.0215,0.0217,0.0218,0.017,0.0166,0.0201,0.02,0.02,0.0199,0,0.0523,0.0547,0.056,0.0576,0.0575,0.0592,0.0569,0.0569,0.0541,0.0512,0.0489,0.0413,0.0374,0.0346,0.0305,0.0295,0.0264,0.0229,0.02,0.0229,0.0176,0.017,0.0208,0.0206,0.0205,0.0203,0,0,0.0563,0.0593,0.0602,0.0632,0.0628,0.0641,0.066,0.0664,0.0689,0.0625,0.0641,0.0561,0.051,0.048,0.0419,0.0373,0.0338,0.0315,0.031,0.0281,0.0237,0.0232,0.0225,0.0304,0.0304,0.0304,0.0197,0,0.062,0.069,0.0684,0.0754,0.0792,0.0767,0.0796,0.0789,0.0764,0.0764,0.0676,0.0655,0.0565,0.0548,0.0489,0.0384,0.0329,0.0371,0.0203,0.0198,0.02,0.0221,0.028,0.0192,0.0191,0.019,0.0189,0,0.0684,0.0726,0.0803,0.0866,0.088,0.0913,0.0958,0.0976,0.0954,0.0934,0.0887,0.0806,0.0736,0.0649,0.0485,0.0518,0.0389,0.0293,0.0286,0.0247,0.0184,0.016,0.0181,-0.0046,0.018,0.0181,0.0181,0,0.0746,0.0818,0.0888,0.0906,0.0957,0.0995,0.1027,0.103,0.1071,0.1042,0.1055,0.0941,0.0906,0.073,0.0526,0.0503,0.0342,0.0279,0.0149,0.0146,0.0147,0.0146,-0.0059,0.0153,0.0154,0.0154,0.0154,0,0.0819,0.0879,0.0931,0.0971,0.1073,0.1076,0.1176,0.1187,0.1219,0.1292,0.115,0.1183,0.0925,0.0796,0.058,0.0368,0.0377,0.017,0.0124,0.0182,0.0186,-0.0053,-0.018,0.015,0.0151,0.0152,0.0152,0,0.088,0.0906,0.1,0.1075,0.1106,0.1184,0.1295,0.1371,0.1377,0.147,0.1467,0.137,0.1214,0.0939,0.067,0.0465,0.0124,0.0153,0.0242,0.0208,-0.013,-0.0251,-0.0485,-0.0568,-0.0013,-0.0013,-0.0014,0,0.0916,0.097,0.1081,0.115,0.1192,0.1306,0.1396,0.1452,0.1549,0.1607,0.1672,0.1543,0.151,0.1105,0.0718,0.0343,0.0116,0.013,0.0085,-0.0131,-0.0302,-0.0385,-0.0444,0.0115,0.0115,0.0116,0.0116,0,0.099,0.1028,0.1105,0.1252,0.1362,0.1497,0.1635,0.1737,0.1824,0.191,0.2014,0.1988,0.1624,0.1288,0.0763,0.0499,0.0002,0.0126,-0.0122,-0.0232,-0.0311,-0.0416,0.0156,0.012,0.012,0.0119,0.0119,0.0119,0.1043,0.1119,0.1224,0.1368,0.1501,0.1678,0.1809,0.1972,0.2151,0.232,0.2293,0.2329,0.1824,0.1132,0.0726,0.0028,0.0003,-0.0187,-0.0321,-0.0389,-0.0455,0.0132,0.0059,0.0059,0.0058,0.0058,0.0057,0,0.1113,0.1201,0.1335,0.1509,0.1669,0.1729,0.1962,0.2111,0.2348,0.2539,0.2648,0.2463,0.1821,0.1144,0.0197,-0.032,-0.049,-0.0609,-0.0727,-0.0771,-0.0268,-0.0247,-0.0357,-0.0357,-0.0357,-0.0357,-0.0356,-0.0356,0.1151,0.1283,0.1357,0.1618,0.1749,0.1974,0.2115,0.2342,0.2534,0.2779,0.2862,0.2892,0.2387,0.0652,-0.0519,-0.0786,-0.1122,-0.12,-0.1402,-0.1083,-0.1055,-0.1027,-0.1039,-0.1313,-0.1314,-0.1803,-0.1808,-0.1812]}],[{"header":{"parameterUnit":"m.s-1","parameterCategory":2,"la1":30.2991,"la2":30.254,"lo1":-89.0895,"lo2":-89.0444,"dy":0.0017,"dx":0.0017,"nx":28,"ny":28,"refTime":"2024-06-20T21:00:00:Z","depth":"2","parameterNumber":2,"parameterNumberName":"U-component_of_CURRENTS"},"data":[0,0,0,0,0,0,0,0,0,0,0,0,0,0,0,0,0,0,0,0,0,0,0,0,0,0,0,0,0,0,0,0,0,0,0,0,0,0,0,0,0,0,0,0,0,0,0,0,0,0,0,0,0,0,0,0,0,0,0.3992,0.3992,0,0.4009,0.4009,0.4008,0.3993,0.3993,0.3993,0.3992,0.3975,0.3975,0.3975,0,0,0,0,0,0,0,0,0,0,0,0,0,0.3954,0.3954,0.3992,0.3992,0.3993,0.4009,0.4009,0.4008,0.3993,0.3993,0.3992,0.3992,0.3975,0.3975,0.3975,0,0,0,0,0,0,0,0,0,0,0,0,0,0.3967,0.3954,0.3992,0.399,0.399,0.4009,0.4009,0.4008,0.3993,0.3993,0.3992,0.3992,0.3975,0.3975,0.3975,0.3981,0,0,0.3974,0.3974,0,0,0,0,0,0,0,0,0.3966,0.3968,0.399,0.399,0.3991,0.4002,0.3989,0.3999,0.3993,0.3988,0.3992,0.3992,0.3984,0.3983,0.3982,0.398,0.3979,0.3974,0.3974,0.3974,0.3973,0,0,0,0,0,0,0,0.3965,0.3967,0.3994,0.399,0.3991,0.3991,0.3992,0.3991,0.3984,0.3988,0.3988,0.3997,0.3983,0.3982,0.3981,0.3979,0.3974,0.3974,0.3973,0.3973,0.4044,0.4046,0,0,0,0,0,0,0.3971,0.3966,0.3994,0.3995,0.3981,0.3993,0.3993,0.3995,0.3985,0.3985,0.3997,0.3996,0.3983,0.3982,0.3981,0.4036,0.3974,0.3973,0.3973,0.4042,0.4045,0.4047,0,0,0,0,0,0,0.397,0.3973,0.3993,0.3984,0.3988,0.3994,0.3996,0.3996,0.401,0.3993,0.399,0.4013,0.3983,0.3981,0.4001,0.4033,0.3973,0.3973,0.404,0.4043,0.4046,0.4115,0,0,0,0,0,0,0.3969,0.3972,0.3981,0.3985,0.3988,0.4015,0.3997,0.3997,0.4017,0.4016,0.4006,0.4003,0.3982,0.4001,0.4,0.4032,0.3973,0.4037,0.4041,0.4045,0.4111,0.4121,0.4129,0,0,0,0,0,0.3967,0.3976,0.3981,0.3985,0.3998,0.4016,0.4018,0.4019,0.4018,0.4029,0.4029,0.4004,0.4025,0.4003,0.4001,0.4033,0.4035,0.404,0.4044,0.4106,0.4119,0.4129,0,0,0,0,0,0,0.3959,0.3976,0.3981,0.3993,0.4012,0.4015,0.4027,0.4033,0.4042,0.4045,0.4025,0.4022,0.4057,0.4039,0.4014,0.4068,0.4029,0.4033,0.4077,0.4088,0.4097,0.4103,0.3972,0,0,0,0,0,0.3964,0.3975,0.3994,0.4005,0.4018,0.4028,0.4039,0.4045,0.4053,0.4057,0.4052,0.4056,0.4073,0.4075,0.4082,0.4104,0.411,0.4127,0.4136,0.4144,0.4151,0.42,0.4214,0.4062,0.4062,0.4062,0,0,0.3963,0.3975,0.3982,0.4005,0.4017,0.404,0.4033,0.4057,0.4079,0.4054,0.4081,0.409,0.409,0.412,0.4133,0.4108,0.4194,0.415,0.4157,0.4159,0.4207,0.4221,0.4234,0.4065,0.4065,0.4064,0,0,0.3964,0.3982,0.3992,0.4014,0.4045,0.4058,0.4073,0.4093,0.4107,0.4139,0.4136,0.4166,0.4177,0.4187,0.4193,0.4259,0.4247,0.4266,0.4309,0.4357,0.437,0.4381,0.4417,0.4431,0.4263,0.4264,0.4264,0,0.3963,0.3981,0.3999,0.4019,0.4044,0.407,0.4096,0.4117,0.4142,0.4165,0.4157,0.4215,0.421,0.426,0.4285,0.4279,0.4303,0.4263,0.4369,0.438,0.4391,0.4424,0.4438,0.4268,0.4267,0.4267,0.4266,0,0.3968,0.3995,0.4007,0.4043,0.4071,0.4101,0.4139,0.4174,0.4201,0.4222,0.4286,0.4295,0.4329,0.4339,0.433,0.4407,0.44,0.438,0.4338,0.441,0.4441,0.4455,0.4273,0.4272,0.4271,0.427,0,0,0.3927,0.3998,0.4002,0.4019,0.4092,0.4099,0.4171,0.4227,0.4271,0.4308,0.4368,0.4407,0.4425,0.4435,0.4439,0.4476,0.4569,0.4464,0.4465,0.4494,0.4681,0.4634,0.4644,0.4574,0.4576,0.4578,0.4675,0,0.3927,0.3955,0.4011,0.4048,0.4063,0.4138,0.4192,0.4249,0.4315,0.4379,0.442,0.4474,0.4458,0.4489,0.453,0.4568,0.4608,0.4544,0.4611,0.4612,0.4558,0.4659,0.4285,0.4336,0.4688,0.4691,0.4692,0,0.3905,0.3928,0.3966,0.4036,0.4053,0.4094,0.4192,0.425,0.4367,0.4421,0.4505,0.4546,0.4627,0.4595,0.4699,0.4665,0.4683,0.4698,0.4702,0.4641,0.4591,0.4321,0.4347,0.4715,0.4713,0.4711,0.471,0,0.3816,0.389,0.3916,0.394,0.4031,0.4078,0.4139,0.4258,0.4327,0.4462,0.4527,0.4628,0.4688,0.4742,0.4793,0.476,0.4898,0.4849,0.482,0.4816,0.4501,0.4465,0.4918,0.4917,0.4917,0.4917,0.4917,0,0.3776,0.3789,0.3874,0.3879,0.3929,0.4011,0.4098,0.4188,0.4332,0.4415,0.4536,0.463,0.4732,0.4824,0.4843,0.4893,0.4944,0.4855,0.4851,0.4516,0.4483,0.4803,0.4788,0.4921,0.492,0.4919,0.4918,0,0.3675,0.3734,0.3759,0.3851,0.3888,0.3918,0.4074,0.4128,0.4279,0.4406,0.4455,0.4658,0.4793,0.4876,0.4984,0.4953,0.4999,0.4992,0.4597,0.4546,0.4868,0.4856,0.4975,0.4975,0.4974,0.4974,0.4974,0,0.3625,0.3625,0.3718,0.3736,0.3789,0.3861,0.3916,0.4085,0.416,0.4415,0.4457,0.4665,0.4768,0.4927,0.4931,0.4968,0.5032,0.4629,0.4496,0.4896,0.4881,0.4869,0.4858,0.41,0.4092,0.4086,0.4081,0,0.353,0.3572,0.3597,0.3642,0.3694,0.3749,0.3845,0.3899,0.4097,0.4218,0.4387,0.4504,0.4688,0.4593,0.4674,0.464,0.4597,0.451,0.503,0.4162,0.4084,0.4064,0.4079,0.4027,0.4032,0.4036,0.4039,0.4041,0.3463,0.3461,0.3501,0.3527,0.3578,0.3598,0.3592,0.3709,0.3813,0.3935,0.4178,0.422,0.4309,0.4264,0.4156,0.4078,0.4394,0.4175,0.4188,0.4208,0.4109,0.4036,0.395,0.3955,0.3959,0.3963,0.3966,0,0.335,0.3358,0.3376,0.3388,0.3361,0.3451,0.35,0.3459,0.3499,0.367,0.3782,0.3572,0.3545,0.3615,0.3423,0.345,0.3345,0.3301,0.3112,0.3173,0.3226,0.3067,0.2637,0.2632,0.2627,0.2623,0,0,0.3292,0.325,0.3247,0.3156,0.3161,0.308,0.3066,0.3056,0.3113,0.3109,0.3119,0.3402,0.3536,0.3043,0.2999,0.2769,0.2928,0.2661,0.3744,0.3584,0.3629,0.3771,0.3604,0,0,0,0,0]},{"header":{"parameterUnit":"m.s-1","parameterCategory":2,"la1":30.2991,"la2":30.254,"lo1":-89.0895,"lo2":-89.0444,"dy":0.0017,"dx":0.0017,"nx":28,"ny":28,"refTime":"2024-06-20T21:00:00:Z","depth":"2","parameterNumber":3,"parameterNumberName":"V-component_of_CURRENTS"},"data":[0,0,0,0,0,0,0,0,0,0,0,0,0,0,0,0,0,0,0,0,0,0,0,0,0,0,0,0,0,0,0,0,0,0,0,0,0,0,0,0,0,0,0,0,0,0,0,0,0,0,0,0,0,0,0,0,0,0,0.0274,0.0273,0,0.0209,0.0208,0.0207,0.0166,0.0166,0.0166,0.0166,0.0078,0.0076,0.0074,0,0,0,0,0,0,0,0,0,0,0,0,0,0.0294,0.0294,0.0274,0.0273,0.0273,0.0209,0.0208,0.0207,0.0166,0.0166,0.0166,0.0166,0.0079,0.0076,0.0074,0,0,0,0,0,0,0,0,0,0,0,0,0,0.0262,0.0294,0.0274,0.0245,0.0242,0.0209,0.0208,0.0207,0.0166,0.0166,0.0166,0.0166,0.008,0.0077,0.0073,0.0057,0,0,0.0063,0.0062,0,0,0,0,0,0,0,0,0.0264,0.0261,0.025,0.0247,0.0244,0.0197,0.0183,0.0156,0.0166,0.0194,0.0166,0.0166,0.0117,0.011,0.0097,0.0052,0.0049,0.0063,0.0061,0.0059,0.0059,0,0,0,0,0,0,0,0.0266,0.0263,0.0247,0.025,0.0246,0.0212,0.0208,0.0177,0.0156,0.0192,0.0189,0.0183,0.0115,0.01,0.0095,0.0047,0.0063,0.006,0.0058,0.0057,-0.0008,-0.0008,0,0,0,0,0,0,0.028,0.0266,0.0249,0.0245,0.0255,0.0213,0.0208,0.0211,0.0157,0.0149,0.0184,0.0182,0.0106,0.0099,0.0091,0.0093,0.0059,0.0056,0.0054,-0.0009,-0.0008,-0.0008,0,0,0,0,0,0,0.0281,0.028,0.0252,0.0254,0.0248,0.0213,0.0217,0.021,0.0201,0.0151,0.0142,0.0183,0.0106,0.0096,0.0076,0.0088,0.0055,0.0052,-0.0009,-0.0009,-0.0008,0.0079,0,0,0,0,0,0,0.0282,0.0281,0.0287,0.0256,0.0249,0.0245,0.0217,0.0209,0.0199,0.0196,0.0148,0.0139,0.0105,0.0081,0.0072,0.0083,0.0049,-0.0009,-0.0009,-0.0008,0.0076,0.0083,0.0088,0,0,0,0,0,0.0283,0.0299,0.0288,0.0286,0.026,0.0246,0.024,0.0212,0.0199,0.0202,0.017,0.0141,0.0078,0.0079,0.0069,0.0078,-0.001,-0.0009,-0.0008,0.0074,0.0082,0.0088,0,0,0,0,0,0,0.031,0.0295,0.0283,0.0293,0.0275,0.024,0.0239,0.022,0.0197,0.0194,0.0146,0.0136,0.012,0.0086,0.0089,0.0059,0.0028,0.0027,0.0094,0.0101,0.0107,0.0132,0.0046,0,0,0,0,0,0.0319,0.0327,0.0304,0.0311,0.0307,0.0274,0.0264,0.0248,0.0223,0.0212,0.0178,0.0141,0.0113,0.0099,0.0066,0.0053,0.0014,0.005,0.0056,0.0062,0.0074,0.0026,0.003,-0.0006,-0.0006,-0.0006,0,0,0.0329,0.0323,0.0326,0.0317,0.03,0.031,0.0268,0.0263,0.0271,0.0206,0.0205,0.0162,0.0114,0.01,0.009,0.0075,0.005,0.0063,0.0068,0.0077,0.0027,0.0031,0.0034,-0.0006,-0.0006,-0.0006,0,0,0.0362,0.0352,0.0372,0.0366,0.0352,0.0336,0.0341,0.0312,0.0301,0.029,0.0247,0.0214,0.0171,0.014,0.0119,0.0137,0.0084,0.0125,0.0178,0.0131,0.0134,0.0136,0.0091,0.0088,0.0129,0.0129,0.0129,0,0.0375,0.0401,0.0374,0.0394,0.0399,0.0357,0.0383,0.0367,0.0335,0.0331,0.0302,0.0238,0.019,0.0179,0.0181,0.0152,0.0119,0.0158,0.0141,0.0142,0.0143,0.0095,0.0091,0.0133,0.0133,0.0133,0.0132,0,0.0422,0.0445,0.0457,0.0473,0.0472,0.0488,0.0467,0.0467,0.0442,0.0416,0.0393,0.0325,0.0289,0.0263,0.0226,0.0213,0.0186,0.0155,0.0128,0.0152,0.01,0.0094,0.014,0.0138,0.0137,0.0136,0,0,0.0459,0.0487,0.0495,0.0524,0.052,0.0532,0.0548,0.0551,0.0572,0.0515,0.0528,0.0454,0.0408,0.0381,0.0325,0.0279,0.0242,0.0228,0.0223,0.0193,0.0143,0.0123,0.0114,0.0212,0.0212,0.0211,0.0105,0,0.0509,0.0574,0.0568,0.0633,0.0667,0.0645,0.0671,0.0663,0.0639,0.0637,0.0556,0.0537,0.0457,0.0442,0.0385,0.0285,0.0231,0.0274,0.0115,0.0111,0.0099,0.0109,0.0153,0.0063,0.0099,0.0098,0.0097,0,0.0568,0.0606,0.0676,0.0734,0.0747,0.0778,0.0817,0.0833,0.081,0.079,0.0745,0.0672,0.0604,0.0528,0.037,0.0404,0.0284,0.0193,0.0186,0.0137,0.0081,0.0042,0.005,0.0087,0.0087,0.0088,0.0089,0,0.0624,0.069,0.0754,0.077,0.0817,0.0853,0.0883,0.0882,0.0918,0.0888,0.0898,0.079,0.0755,0.0593,0.04,0.0384,0.0222,0.017,0.0037,0.0033,0.0024,0.0021,0.0051,0.0051,0.0051,0.0052,0.0052,0,0.0691,0.0745,0.0794,0.083,0.0925,0.0929,0.1019,0.1027,0.1054,0.1115,0.0987,0.1005,0.0771,0.0644,0.0446,0.0237,0.0252,0.0052,0.0008,0.0055,0.0056,0.0039,0.004,0.0048,0.0049,0.0049,0.005,0,0.0748,0.077,0.0857,0.0926,0.0955,0.1029,0.1131,0.1199,0.1202,0.1279,0.1276,0.1172,0.101,0.0759,0.0502,0.0317,0.0101,0.0017,0.009,0.0057,-0.0074,-0.0068,-0.0148,-0.015,-0.0151,-0.0152,-0.0153,0,0.0781,0.083,0.0933,0.0996,0.1036,0.1142,0.1225,0.1275,0.1358,0.1394,0.1447,0.1309,0.1249,0.0858,0.0504,0.0157,0.0101,-0.0043,-0.0078,-0.0058,-0.0093,-0.0085,-0.0078,-0.0062,-0.0062,-0.0063,-0.0063,0,0.0849,0.0884,0.0954,0.1089,0.119,0.1314,0.1439,0.1527,0.16,0.1662,0.1724,0.1672,0.1316,0.0974,0.049,0.0259,0.0013,-0.0056,-0.0051,-0.0012,0.0016,-0.0016,-0.001,-0.0063,-0.0063,-0.0063,-0.0063,-0.0063,0.0897,0.0965,0.106,0.1191,0.1315,0.1471,0.1585,0.1722,0.1866,0.1977,0.1932,0.1871,0.1481,0.087,0.0447,0.0001,0.0021,-0.0142,-0.0139,-0.0136,-0.01,-0.0075,-0.0166,-0.0166,-0.0167,-0.0167,-0.0167,0,0.0957,0.1035,0.1157,0.1312,0.1458,0.1516,0.1717,0.1832,0.2012,0.212,0.2171,0.18,0.1408,0.0942,0.0285,-0.0103,-0.0126,-0.023,-0.0177,-0.0172,-0.0169,-0.0134,-0.021,-0.0211,-0.0213,-0.0214,0,0,0.0988,0.1103,0.1168,0.1399,0.1519,0.1714,0.1833,0.2001,0.212,0.2219,0.2199,0.2135,0.1565,0.1078,0.0547,0.016,0.0088,0.0093,0.0175,0.0307,0.0315,-0.0066,0.0001,0,0,0,0,0]}],[{"header":{"parameterUnit":"m.s-1","parameterCategory":2,"la1":30.2991,"la2":30.254,"lo1":-89.0895,"lo2":-89.0444,"dy":0.0017,"dx":0.0017,"nx":28,"ny":28,"refTime":"2024-06-20T21:00:00:Z","depth":"4","parameterNumber":2,"parameterNumberName":"U-component_of_CURRENTS"},"data":[0,0,0,0,0,0,0,0,0,0,0,0,0,0,0,0,0,0,0,0,0,0,0,0,0,0,0,0,0,0,0,0,0,0,0,0,0,0,0,0,0,0,0,0,0,0,0,0,0,0,0,0,0,0,0,0,0,0,0.2676,0.2677,0,0.2763,0.2763,0.2764,0.2841,0.2842,0.2843,0.2844,0.2949,0.295,0.2952,0,0,0,0,0,0,0,0,0,0,0,0,0,0.2557,0.2558,0.2676,0.2677,0.2679,0.2763,0.2763,0.2764,0.2841,0.2842,0.2844,0.2845,0.2948,0.295,0.2952,0,0,0,0,0,0,0,0,0,0,0,0,0,0.2619,0.2559,0.2676,0.2729,0.2735,0.2762,0.2764,0.2765,0.2841,0.2842,0.2844,0.2846,0.2947,0.295,0.2952,0.2933,0,0,0.296,0.2961,0,0,0,0,0,0,0,0,0.2616,0.2623,0.272,0.2725,0.2732,0.2795,0.276,0.2823,0.284,0.2797,0.2844,0.2847,0.29,0.2906,0.2914,0.2938,0.2942,0.296,0.2962,0.2963,0.2964,0,0,0,0,0,0,0,0.2611,0.262,0.2707,0.2721,0.2729,0.2742,0.2753,0.2772,0.2835,0.2801,0.2808,0.2821,0.2903,0.2911,0.2917,0.2944,0.296,0.2963,0.2964,0.2965,0.3125,0.3128,0,0,0,0,0,0,0.2606,0.2616,0.2705,0.271,0.2681,0.2743,0.2755,0.2771,0.2835,0.2847,0.282,0.2825,0.2906,0.2914,0.2921,0.3051,0.2963,0.2965,0.2967,0.3122,0.3126,0.3129,0,0,0,0,0,0,0.2603,0.2613,0.2701,0.2667,0.268,0.2744,0.2761,0.2772,0.2839,0.285,0.2862,0.2883,0.2908,0.2918,0.2994,0.305,0.2966,0.2969,0.3119,0.3123,0.3127,0.3214,0,0,0,0,0,0,0.2599,0.2611,0.2648,0.2667,0.2682,0.2752,0.276,0.2772,0.2842,0.2851,0.2906,0.2915,0.291,0.299,0.2996,0.3052,0.2971,0.3116,0.3121,0.3126,0.3207,0.322,0.3231,0,0,0,0,0,0.2595,0.2624,0.2648,0.2661,0.272,0.2754,0.2763,0.2811,0.2844,0.2878,0.2926,0.2916,0.3027,0.2994,0.3001,0.3058,0.3113,0.312,0.3126,0.3202,0.3218,0.3231,0,0,0,0,0,0,0.2591,0.2636,0.2663,0.2707,0.2747,0.2769,0.2813,0.2843,0.2906,0.2936,0.2946,0.2957,0.3047,0.3042,0.3005,0.3121,0.3071,0.3078,0.3127,0.3141,0.3153,0.315,0.2973,0,0,0,0,0,0.2606,0.2648,0.2683,0.2726,0.2751,0.2794,0.2827,0.286,0.2905,0.2937,0.2976,0.3023,0.3066,0.3098,0.313,0.3187,0.3185,0.3231,0.3243,0.3253,0.3258,0.3307,0.3324,0.3149,0.3149,0.3149,0,0,0.2618,0.265,0.2676,0.2731,0.2769,0.2809,0.282,0.2884,0.2933,0.2936,0.3035,0.3071,0.3093,0.3165,0.3204,0.3175,0.3305,0.3261,0.3269,0.3268,0.3315,0.3332,0.3347,0.3153,0.3152,0.3152,0,0,0.2638,0.2693,0.2728,0.2767,0.2836,0.286,0.2892,0.295,0.3,0.3082,0.3105,0.3176,0.3242,0.3266,0.3284,0.3381,0.3369,0.3406,0.3461,0.351,0.3524,0.3536,0.3559,0.3573,0.3407,0.3407,0.3408,0,0.2656,0.2703,0.2745,0.2786,0.2831,0.2889,0.2937,0.2985,0.3067,0.3114,0.3133,0.326,0.3284,0.3361,0.3402,0.3407,0.3428,0.3401,0.3524,0.3536,0.3547,0.3567,0.3582,0.3412,0.3412,0.3411,0.3411,0,0.268,0.2745,0.2773,0.2846,0.2895,0.2953,0.3016,0.3091,0.3164,0.3207,0.3327,0.3367,0.3441,0.3466,0.3467,0.3567,0.3554,0.3535,0.3482,0.357,0.3586,0.3599,0.3419,0.3418,0.3416,0.3415,0,0,0.2649,0.2769,0.2786,0.2831,0.2941,0.2969,0.3076,0.3165,0.324,0.3333,0.3426,0.3514,0.3555,0.3579,0.36,0.3642,0.3743,0.3636,0.3636,0.3648,0.3851,0.362,0.3612,0.3756,0.3759,0.3762,0.383,0,0.2665,0.274,0.2811,0.29,0.2941,0.3044,0.3125,0.322,0.3319,0.3421,0.3493,0.3589,0.3591,0.3649,0.3699,0.3741,0.3783,0.3726,0.3772,0.3773,0.3549,0.362,0.377,0.384,0.3843,0.3845,0.3846,0,0.2655,0.2711,0.2801,0.2921,0.2953,0.3029,0.3177,0.3262,0.3414,0.3494,0.361,0.3671,0.3779,0.3758,0.3872,0.3845,0.3863,0.3875,0.3877,0.3636,0.3565,0.3734,0.3869,0.3868,0.3866,0.3864,0.3863,0,0.2568,0.2699,0.2774,0.2818,0.2963,0.3047,0.3141,0.3296,0.3383,0.356,0.3641,0.3767,0.3849,0.3907,0.3957,0.3937,0.4052,0.4016,0.3818,0.3802,0.395,0.3936,0.4083,0.4083,0.4083,0.4082,0.4082,0,0.2523,0.2587,0.2751,0.2786,0.2892,0.301,0.3148,0.3263,0.3434,0.3525,0.3681,0.376,0.3898,0.3977,0.3997,0.3945,0.4091,0.3833,0.3806,0.3986,0.3975,0.3959,0.3944,0.4085,0.4084,0.4084,0.4084,0,0.2414,0.2526,0.2617,0.2791,0.2857,0.2935,0.315,0.3226,0.3412,0.3543,0.3607,0.3795,0.3891,0.3982,0.4075,0.3966,0.3956,0.3899,0.4094,0.4077,0.3663,0.3652,0.367,0.3662,0.3656,0.3651,0.3646,0,0.2359,0.2398,0.2601,0.2662,0.2762,0.2905,0.2994,0.3201,0.3278,0.3529,0.3556,0.3735,0.383,0.3762,0.3892,0.3894,0.3852,0.3807,0.3717,0.3649,0.3623,0.3622,0.3619,0.3636,0.3634,0.3633,0.3631,0,0.2253,0.2358,0.2436,0.2566,0.268,0.2778,0.2923,0.2957,0.3172,0.3369,0.3412,0.3459,0.3554,0.3612,0.3638,0.364,0.3811,0.3739,0.3751,0.3666,0.3608,0.3588,0.3593,0.3609,0.3612,0.3614,0.3615,0,0.2189,0.2221,0.2345,0.2435,0.2563,0.2598,0.2701,0.2772,0.2873,0.3127,0.3144,0.3331,0.3516,0.3483,0.352,0.3493,0.3435,0.33,0.3334,0.336,0.3227,0.3106,0.2932,0,0,0,0,0,0.2102,0.2116,0.2193,0.2274,0.2386,0.246,0.2618,0.2717,0.2925,0.2867,0.2989,0.306,0.3107,0.3221,0.313,0.3405,0.3462,0.3286,0.3327,0.3486,0.3512,0.3385,0,0,0,0,0,0,0.2044,0.2115,0.2135,0.2113,0.2132,0.223,0.2321,0.2464,0.2439,0.2661,0.2703,0.2872,0.2971,0.3121,0.3071,0.3103,0.3063,0.3414,0.3405,0.3472,0.3495,0.3515,0.3394,0,0,0,0,0]},{"header":{"parameterUnit":"m.s-1","parameterCategory":2,"la1":30.2991,"la2":30.254,"lo1":-89.0895,"lo2":-89.0444,"dy":0.0017,"dx":0.0017,"nx":28,"ny":28,"refTime":"2024-06-20T21:00:00:Z","depth":"4","parameterNumber":3,"parameterNumberName":"V-component_of_CURRENTS"},"data":[0,0,0,0,0,0,0,0,0,0,0,0,0,0,0,0,0,0,0,0,0,0,0,0,0,0,0,0,0,0,0,0,0,0,0,0,0,0,0,0,0,0,0,0,0,0,0,0,0,0,0,0,0,0,0,0,0,0,0.0216,0.0216,0,0.0176,0.0175,0.0175,0.0151,0.0151,0.0151,0.0151,0.0087,0.0086,0.0084,0,0,0,0,0,0,0,0,0,0,0,0,0,0.0224,0.0224,0.0216,0.0216,0.0216,0.0176,0.0175,0.0175,0.0151,0.0151,0.0151,0.0151,0.0088,0.0086,0.0084,0,0,0,0,0,0,0,0,0,0,0,0,0,0.0205,0.0224,0.0216,0.02,0.0198,0.0176,0.0175,0.0175,0.0151,0.0151,0.0151,0.0151,0.0089,0.0086,0.0084,0.0069,0,0,0.0076,0.0075,0,0,0,0,0,0,0,0,0.0206,0.0205,0.0202,0.0201,0.0199,0.0169,0.0155,0.0138,0.0151,0.0168,0.0151,0.0151,0.0113,0.0109,0.01,0.0066,0.0063,0.0076,0.0074,0.0073,0.0073,0,0,0,0,0,0,0,0.0208,0.0206,0.02,0.0202,0.02,0.0177,0.0175,0.0151,0.014,0.0167,0.0165,0.0162,0.0112,0.0103,0.0099,0.0062,0.0076,0.0074,0.0072,0.0071,0.0021,0.0021,0,0,0,0,0,0,0.0217,0.0208,0.0201,0.0198,0.0203,0.0177,0.0175,0.0178,0.0141,0.0136,0.0162,0.0161,0.0107,0.0102,0.0096,0.0099,0.0073,0.0071,0.007,0.0021,0.0021,0.0021,0,0,0,0,0,0,0.0217,0.0217,0.0203,0.0202,0.0199,0.0178,0.0181,0.0177,0.0175,0.0138,0.0132,0.0164,0.0107,0.01,0.0086,0.0095,0.007,0.0068,0.0021,0.0021,0.0021,0.0089,0,0,0,0,0,0,0.0218,0.0218,0.0225,0.0203,0.0199,0.02,0.0181,0.0177,0.0173,0.0171,0.0138,0.0131,0.0106,0.009,0.0084,0.0091,0.0066,0.0021,0.0021,0.0021,0.0087,0.0092,0.0096,0,0,0,0,0,0.0218,0.0231,0.0226,0.0225,0.021,0.0201,0.0197,0.018,0.0173,0.0177,0.0155,0.0133,0.0087,0.0089,0.0081,0.0088,0.002,0.0021,0.0021,0.0085,0.0091,0.0096,0,0,0,0,0,0,0.0237,0.0229,0.0223,0.0232,0.0222,0.0197,0.0199,0.0187,0.0173,0.0173,0.0137,0.013,0.012,0.0093,0.0096,0.0073,0.0049,0.0048,0.01,0.0105,0.011,0.0129,0.0064,0,0,0,0,0,0.0245,0.0254,0.0239,0.0246,0.0244,0.0223,0.0218,0.0208,0.0191,0.0185,0.0161,0.0135,0.0114,0.0103,0.0079,0.0069,0.0036,0.0066,0.0071,0.0075,0.0085,0.0042,0.0044,0.0023,0.0023,0.0023,0,0,0.0254,0.0251,0.0255,0.0251,0.0241,0.025,0.022,0.0219,0.0228,0.018,0.0183,0.0152,0.0115,0.0105,0.0098,0.0085,0.0063,0.0075,0.008,0.0087,0.0043,0.0045,0.0047,0.0023,0.0023,0.0023,0,0,0.0278,0.0275,0.0291,0.0289,0.0282,0.0272,0.0276,0.0258,0.0252,0.0247,0.0216,0.0191,0.016,0.0136,0.0119,0.0133,0.009,0.0124,0.0164,0.0122,0.0124,0.0125,0.0085,0.0082,0.0126,0.0126,0.0126,0,0.0289,0.0311,0.0293,0.031,0.0316,0.0288,0.0309,0.0299,0.0279,0.0278,0.0258,0.0212,0.0175,0.0165,0.0167,0.0144,0.0116,0.0149,0.0129,0.013,0.013,0.0088,0.0084,0.0129,0.0129,0.0128,0.0128,0,0.0325,0.0345,0.0355,0.0371,0.0373,0.0387,0.0374,0.0378,0.0363,0.0345,0.0331,0.0278,0.0253,0.0231,0.0203,0.0188,0.0166,0.0142,0.0119,0.0136,0.0091,0.0085,0.0134,0.0133,0.0132,0.0131,0,0,0.0349,0.0377,0.0383,0.041,0.041,0.0422,0.0438,0.0443,0.0461,0.0422,0.0435,0.0378,0.0344,0.0323,0.0279,0.0237,0.0201,0.0196,0.0192,0.0164,0.0112,0.0092,0.0084,0.0176,0.0176,0.0175,0.0081,0,0.0386,0.0438,0.0437,0.0493,0.0521,0.051,0.0533,0.0532,0.0514,0.0516,0.0456,0.0444,0.0382,0.0372,0.0322,0.0237,0.019,0.0229,0.0094,0.009,0.0076,0.0078,0.0173,0.0076,0.0075,0.0074,0.0073,0,0.0427,0.0459,0.0517,0.0572,0.0583,0.0614,0.0651,0.0666,0.0652,0.0639,0.0606,0.055,0.0494,0.0436,0.03,0.033,0.0231,0.0153,0.0148,0.0104,0.006,0.0054,0.0062,0.0063,0.0064,0.0065,0.0065,0,0.0462,0.0521,0.0576,0.0591,0.0638,0.0674,0.0705,0.0708,0.0739,0.0719,0.0729,0.0641,0.0614,0.0479,0.0315,0.0308,0.0158,0.0124,0.001,0.0007,0.0024,0.0023,0.0022,0.0022,0.0022,0.0023,0.0023,0,0.0504,0.0553,0.0608,0.0639,0.0723,0.0735,0.0816,0.0826,0.0852,0.0896,0.0804,0.0808,0.0623,0.051,0.0348,0.0169,0.0179,0.002,-0.0017,0.0053,0.0058,0.0019,0.002,0.0019,0.002,0.002,0.0021,0,0.0537,0.0565,0.0641,0.0712,0.0744,0.081,0.0911,0.0965,0.0976,0.1031,0.1031,0.0938,0.0788,0.0587,0.0365,0.0225,0.0042,-0.0028,0.0071,0.004,-0.0091,-0.0086,-0.0163,-0.0164,-0.0166,-0.0167,-0.0168,0,0.0555,0.0596,0.07,0.0757,0.08,0.0902,0.0975,0.1028,0.1087,0.111,0.114,0.1017,0.0924,0.0613,0.0384,0.0071,0.0017,-0.0082,-0.01,-0.0081,-0.011,-0.0102,-0.0095,-0.017,-0.017,-0.017,-0.0171,0,0.0591,0.0632,0.0693,0.0814,0.0909,0.1019,0.1127,0.1179,0.1238,0.1251,0.1229,0.106,0.089,0.0625,0.038,0.0153,-0.002,-0.0096,-0.0095,-0.0114,-0.009,-0.0116,-0.0107,-0.0175,-0.0174,-0.0174,-0.0174,0,0.0619,0.0672,0.0756,0.0866,0.0988,0.1101,0.1157,0.1233,0.129,0.1309,0.1301,0.1112,0.1008,0.0667,0.0446,0.0216,0.0144,0.0057,0.0048,0.005,0.0129,0.0191,0.0165,0,0,0,0,0,0.064,0.0699,0.0801,0.092,0.1046,0.1118,0.1243,0.1287,0.1344,0.1341,0.1325,0.1164,0.0838,0.0703,0.0469,0.0392,0.0085,0.0106,-0.0024,-0.0199,-0.0194,-0.0141,0,0,0,0,0,0,0.0651,0.0741,0.0795,0.0948,0.1036,0.1177,0.126,0.1297,0.1298,0.1317,0.1153,0.1088,0.0773,0.0971,0.046,0.0391,0.0271,-0.0038,-0.0044,-0.0201,-0.0197,-0.0193,-0.0137,0,0,0,0,0]}]]